Weather History for Houghton, MI

Change the Weather History Date:

Thursday, January 31, 2013

  Actual Average Record
Temperature  
Mean Temperature 8 °F -  
Max Temperature 10 °F 22 °F 39 °F (1989)
Min Temperature 6 °F 9 °F -12 °F (1985)
Degree Days  
Heating Degree Days 57    
Moisture  
Dew Point 3 °F    
Average Humidity 80    
Maximum Humidity 85    
Minimum Humidity 73    
Precipitation  
Precipitation 0.03 in - - ()
Sea Level Pressure  
Sea Level Pressure 29.69 in    
Wind  
Wind Speed 14 mph (NNW)    
Max Wind Speed 20 mph    
Max Gust Speed 28 mph    
Visibility 1 miles    
Events Fog , Snow    
Averages and records for this station are not official NWS values.
T = Trace of Precipitation, MM = Missing Value Source: NWS Daily Summary

Daily Weather History Graph

Daily Weather History Graph

Search for Another Location

Airport:

Trip Planner

Search our weather history database for the weather conditions in past years. The results will help you decide how hot, cold, wet, or windy it might be!

Date:

Astronomy

Jan. 31, 2013 Rise Set
Actual Time 8:20 AM EST 5:55 PM EST
Civil Twilight 7:47 AM EST 6:28 PM EST
Nautical Twilight 7:10 AM EST 7:04 PM EST
Astronomical Twilight 6:35 AM EST 7:40 PM EST
Moon 11:22 PM EST 9:57 AM EST
Length of Visible Light 10h 40m
Length of Day
9h 35m
Waning Gibbous, 80% of the Moon is Illuminated
Jan 31
Waning Gibbous
Feb 3
Last Quarter
Feb 10
New
Feb 17
First Quarter
Feb 25
Full

Hourly Weather History & Observations

Time (EST) Temp. Windchill Dew Point Humidity Pressure Visibility Wind Dir Wind Speed Gust Speed Precip Events Conditions
12:03 AM 10.4 °F -3.3 °F 6.8 °F 85% 29.44 in 1.0 mi North 10.4 mph 19.6 mph N/A   Mist
12:11 AM 10.4 °F -4.1 °F 6.8 °F 85% 29.44 in 0.5 mi North 11.5 mph 21.9 mph N/A Fog Light Freezing Fog
12:53 AM 10.9 °F -7.0 °F 7.0 °F 84% 29.52 in 1.0 mi North 18.4 mph 27.6 mph 0.01 in   Mist
1:02 AM 10.4 °F -6.6 °F 6.8 °F 85% 29.46 in 1.5 mi North 16.1 mph 26.5 mph N/A   Haze
1:17 AM 10.4 °F -4.8 °F 6.8 °F 85% 29.46 in 1.8 mi North 12.7 mph 25.3 mph N/A   Overcast
1:25 AM 10.4 °F -6.0 °F 6.8 °F 85% 29.46 in 2.0 mi North 15.0 mph - N/A   Overcast
1:32 AM 10.4 °F -4.1 °F 6.8 °F 85% 29.46 in 1.2 mi North 11.5 mph 19.6 mph N/A   Overcast
1:40 AM 10.4 °F -4.8 °F 6.8 °F 85% 29.46 in 0.8 mi NNW 12.7 mph - N/A   Overcast
1:51 AM 10.4 °F -7.2 °F 6.8 °F 85% 29.46 in 0.8 mi NNW 17.3 mph - N/A   Mist
1:53 AM 10.0 °F -8.1 °F 6.1 °F 84% 29.54 in 0.8 mi North 18.4 mph 24.2 mph N/A   Mist
2:20 AM 8.6 °F -9.5 °F 5.0 °F 85% 29.47 in 1.0 mi North 17.3 mph - 0.01 in   Mist
2:53 AM 9.0 °F -9.0 °F 3.9 °F 80% 29.55 in 1.5 mi North 17.3 mph - 0.01 in   Haze
3:53 AM 8.1 °F -10.2 °F 3.9 °F 83% 29.57 in 1.8 mi North 17.3 mph 24.2 mph N/A   Overcast
3:57 AM 8.6 °F -7.7 °F 3.2 °F 79% 29.50 in 2.0 mi North 13.8 mph - N/A   Haze
4:00 AM 8.6 °F -7.7 °F 3.2 °F 79% 29.50 in 1.8 mi North 13.8 mph 21.9 mph N/A   Haze
4:15 AM 8.6 °F -8.9 °F 3.2 °F 79% 29.50 in 1.8 mi North 16.1 mph 23.0 mph N/A   Haze
4:28 AM 8.6 °F -7.7 °F 3.2 °F 79% 29.50 in 2.5 mi North 13.8 mph - N/A   Haze
4:53 AM 8.1 °F -8.4 °F 3.0 °F 80% 29.58 in 2.0 mi North 13.8 mph 21.9 mph N/A   Haze
4:59 AM 8.6 °F -9.5 °F 3.2 °F 79% 29.51 in 1.8 mi NNW 17.3 mph 25.3 mph N/A   Haze
5:29 AM 6.8 °F -10.7 °F 3.2 °F 85% 29.52 in 1.8 mi NNW 15.0 mph 20.7 mph N/A   Overcast
5:53 AM 7.0 °F -10.4 °F 3.0 °F 84% 29.60 in 1.5 mi NNW 15.0 mph 21.9 mph N/A   Overcast
6:07 AM 6.8 °F -9.3 °F 3.2 °F 85% 29.52 in 1.8 mi North 12.7 mph 21.9 mph N/A   Overcast
6:44 AM 6.8 °F -11.3 °F 1.4 °F 79% 29.53 in 2.5 mi North 16.1 mph - N/A   Haze
6:53 AM 7.0 °F -8.3 °F 1.9 °F 80% 29.61 in 2.5 mi NNW 11.5 mph - N/A   Haze
7:07 AM 6.8 °F -10.0 °F 1.4 °F 79% 29.54 in 1.0 mi NNW 13.8 mph 21.9 mph N/A   Haze
7:25 AM 6.8 °F -11.3 °F 1.4 °F 79% 29.55 in 2.0 mi NNW 16.1 mph - N/A   Haze
7:53 AM 7.0 °F -9.1 °F 1.9 °F 80% 29.63 in 3.0 mi NNW 12.7 mph - N/A   Haze
7:59 AM 6.8 °F -9.3 °F 1.4 °F 79% 29.56 in 1.8 mi NNW 12.7 mph - N/A   Haze
8:14 AM 6.8 °F -10.0 °F 1.4 °F 79% 29.57 in 3.0 mi NNW 13.8 mph - N/A   Haze
8:40 AM 6.8 °F -10.0 °F 1.4 °F 79% 29.58 in 1.8 mi NNW 13.8 mph - N/A   Haze
8:53 AM 7.0 °F -9.1 °F 1.9 °F 80% 29.66 in 1.8 mi North 12.7 mph - 0.01 in   Haze
9:01 AM 6.8 °F -8.6 °F 1.4 °F 79% 29.59 in 2.5 mi North 11.5 mph - N/A   Haze
9:18 AM 6.8 °F -9.3 °F 1.4 °F 79% 29.59 in 1.0 mi North 12.7 mph - 0.00 in Snow Light Snow
9:40 AM 6.8 °F -10.7 °F 1.4 °F 79% 29.60 in 1.5 mi North 15.0 mph - 0.00 in Snow Light Snow
9:51 AM 6.8 °F -10.0 °F 1.4 °F 79% 29.61 in 1.8 mi North 13.8 mph 20.7 mph 0.00 in Snow Light Snow
9:53 AM 7.0 °F -10.4 °F 1.9 °F 80% 29.68 in 1.5 mi North 15.0 mph 20.7 mph 0.00 in Snow Light Snow
10:05 AM 8.6 °F -8.3 °F 1.4 °F 73% 29.61 in 0.8 mi North 15.0 mph - 0.00 in Snow Light Snow
10:53 AM 8.1 °F -8.4 °F 3.0 °F 80% 29.71 in 0.8 mi North 13.8 mph 20.7 mph 0.00 in Snow Light Snow
11:09 AM 8.6 °F -7.0 °F 3.2 °F 79% 29.65 in 1.0 mi NNW 12.7 mph - 0.00 in Snow Light Snow
11:46 AM 8.6 °F -8.3 °F 1.4 °F 73% 29.67 in 1.0 mi NNW 15.0 mph - 0.00 in Snow Light Snow
11:53 AM 9.0 °F -7.9 °F 3.0 °F 77% 29.75 in 1.0 mi North 15.0 mph - 0.00 in Snow Light Snow
12:02 PM 8.6 °F -8.3 °F 3.2 °F 79% 29.68 in 0.8 mi NNW 15.0 mph - 0.00 in Snow Light Snow
12:05 PM 8.6 °F -8.3 °F 3.2 °F 79% 29.68 in 1.0 mi NNW 15.0 mph - 0.00 in Snow Light Snow
12:27 PM 8.6 °F -7.7 °F 3.2 °F 79% 29.68 in 0.8 mi NNW 13.8 mph - 0.00 in Snow Light Snow
12:39 PM 8.6 °F -7.7 °F 3.2 °F 79% 29.68 in 1.0 mi NNW 13.8 mph - 0.00 in Snow Light Snow
12:51 PM 8.6 °F -7.0 °F 3.2 °F 79% 29.68 in 1.0 mi North 12.7 mph - 0.00 in Snow Light Snow
12:53 PM 9.0 °F -7.9 °F 3.0 °F 77% 29.76 in 1.0 mi North 15.0 mph - 0.00 in Snow Light Snow
1:24 PM 8.6 °F -7.0 °F 3.2 °F 79% 29.69 in 0.5 mi North 12.7 mph 21.9 mph 0.00 in Snow Snow
1:31 PM 8.6 °F -6.3 °F 3.2 °F 79% 29.69 in 0.5 mi NNW 11.5 mph - 0.00 in Snow Snow
1:53 PM 9.0 °F -5.9 °F 3.9 °F 80% 29.78 in 0.5 mi NNW 11.5 mph - 0.00 in Snow Snow
2:43 PM 8.6 °F -8.9 °F 3.2 °F 79% 29.71 in 0.2 mi NNW 16.1 mph 21.9 mph 0.00 in Fog , Snow Heavy Snow
2:53 PM 9.0 °F -5.9 °F 3.9 °F 80% 29.79 in 0.2 mi NW 11.5 mph - 0.00 in Snow Heavy Snow
3:09 PM 8.6 °F -10.5 °F 3.2 °F 79% 29.72 in 0.5 mi NW 19.6 mph - 0.00 in Snow Snow
3:18 PM 8.6 °F -10.0 °F 3.2 °F 79% 29.73 in 0.5 mi NW 18.4 mph - 0.00 in Snow Snow
3:53 PM 8.1 °F -10.7 °F 3.9 °F 83% 29.82 in 0.5 mi NW 18.4 mph - 0.00 in Fog , Snow Snow
4:13 PM 8.6 °F -8.9 °F 1.4 °F 73% 29.75 in 1.8 mi NNW 16.1 mph - 0.00 in Snow Light Snow
4:44 PM 8.6 °F -8.9 °F 3.2 °F 79% 29.76 in 0.8 mi NW 16.1 mph - 0.00 in Snow Light Snow
4:53 PM 8.1 °F -9.6 °F 3.0 °F 80% 29.85 in 0.5 mi NW 16.1 mph - 0.00 in Snow Snow
5:00 PM 8.6 °F -7.7 °F 3.2 °F 79% 29.77 in 0.5 mi NW 13.8 mph - 0.00 in Fog , Snow Snow
5:53 PM 8.1 °F -10.7 °F 3.9 °F 83% 29.87 in 1.0 mi NW 18.4 mph - 0.00 in Snow Light Snow
6:12 PM 8.6 °F -7.0 °F 3.2 °F 79% 29.80 in 1.5 mi NW 12.7 mph - 0.00 in Snow Light Snow
6:50 PM 8.6 °F -6.3 °F 3.2 °F 79% 29.82 in 3.0 mi NNW 11.5 mph - 0.00 in Snow Light Snow
6:53 PM 8.1 °F -7.0 °F 3.0 °F 80% 29.90 in 3.0 mi NNW 11.5 mph - 0.00 in Snow Light Snow
7:05 PM 8.6 °F -8.3 °F 3.2 °F 79% 29.82 in 2.0 mi NNW 15.0 mph - 0.00 in Snow Light Snow
7:16 PM 8.6 °F -8.9 °F 3.2 °F 79% 29.82 in 1.5 mi NW 16.1 mph - 0.00 in Snow Light Snow
7:53 PM 8.1 °F -8.4 °F 3.0 °F 80% 29.91 in 1.5 mi NNW 13.8 mph 21.9 mph 0.00 in Snow Light Snow
8:08 PM 8.6 °F -8.3 °F 3.2 °F 79% 29.84 in 3.0 mi NNW 15.0 mph - 0.00 in Snow Light Snow
8:16 PM 8.6 °F -8.3 °F 3.2 °F 79% 29.84 in 1.8 mi NNW 15.0 mph 23.0 mph 0.00 in Snow Light Snow
8:46 PM 8.6 °F -10.0 °F 3.2 °F 79% 29.85 in 0.8 mi NNW 18.4 mph 25.3 mph 0.00 in Snow Light Snow
8:53 PM 8.1 °F -9.0 °F 3.9 °F 83% 29.93 in 0.8 mi NNW 15.0 mph - 0.00 in Snow Light Snow
9:10 PM 8.6 °F -9.5 °F 3.2 °F 79% 29.85 in 1.2 mi NW 17.3 mph 25.3 mph 0.00 in Snow Light Snow
9:28 PM 8.6 °F -7.7 °F 3.2 °F 79% 29.86 in 1.2 mi NNW 13.8 mph 24.2 mph 0.00 in Snow Light Snow
9:39 PM 6.8 °F -11.3 °F 3.2 °F 85% 29.87 in 0.8 mi NNW 16.1 mph 23.0 mph 0.00 in Snow Light Snow
9:53 PM 8.1 °F -7.7 °F 3.9 °F 83% 29.95 in 0.8 mi NW 12.7 mph - 0.00 in Snow Light Snow
10:16 PM 6.8 °F -11.8 °F 1.4 °F 79% 29.88 in 1.2 mi NNW 17.3 mph 24.2 mph 0.00 in Snow Light Snow
10:23 PM 6.8 °F -10.0 °F 1.4 °F 79% 29.88 in 1.2 mi NNW 13.8 mph 23.0 mph 0.00 in Snow Light Snow
10:31 PM 6.8 °F -11.8 °F 1.4 °F 79% 29.88 in 1.5 mi NW 17.3 mph - 0.00 in Snow Light Snow
10:37 PM 6.8 °F -11.3 °F 3.2 °F 85% 29.89 in 0.8 mi NNW 16.1 mph 23.0 mph 0.00 in Snow Light Snow
10:44 PM 6.8 °F -12.4 °F 3.2 °F 85% 29.89 in 0.5 mi NNW 18.4 mph - 0.00 in Fog , Snow Snow
10:53 PM 7.0 °F -9.8 °F 3.0 °F 84% 29.97 in 1.0 mi NW 13.8 mph - 0.00 in Snow Light Snow
11:13 PM 6.8 °F -12.9 °F 1.4 °F 79% 29.89 in 1.0 mi NNW 19.6 mph 25.3 mph 0.00 in Snow Light Snow
11:25 PM 6.8 °F -12.4 °F 1.4 °F 79% 29.90 in 0.8 mi NW 18.4 mph - 0.00 in Snow Light Snow
11:35 PM 6.8 °F -11.8 °F 1.4 °F 79% 29.90 in 1.2 mi NW 17.3 mph - 0.00 in Snow Light Snow
11:53 PM 6.1 °F -11.6 °F 1.0 °F 80% 29.99 in 1.8 mi NW 15.0 mph - 0.00 in Snow Light Snow
11:58 PM 6.8 °F -11.8 °F 1.4 °F 79% 29.91 in 2.0 mi NW 17.3 mph - 0.00 in Snow Light Snow